| time (UTC) | temp F | wind direction | speed MPH | gust MPH | rain 1hr in | rain 24hr in | rain mn in | humidity % | barometer mb |
| 20260509055346 | 53 | 135 | 3.0 | 7.0 | 0.00 | 0.00 | 0.00 | 62 | 1000.5 |
| 20260509054846 | 53 | 136 | 3.0 | 7.0 | 0.00 | 0.00 | 0.00 | 62 | 1000.6 |
| 20260509054344 | 53 | 144 | 4.0 | 8.0 | 0.00 | 0.00 | 0.00 | 62 | 1000.7 |
| 20260509053842 | 53 | 141 | 4.0 | 8.0 | 0.00 | 0.00 | 0.00 | 61 | 1000.7 |
| 20260509053339 | 53 | 144 | 4.0 | 9.0 | 0.00 | 0.00 | 0.00 | 61 | 1000.7 |
| 20260509053110 | 53 | 165 | 5.0 | 9.0 | 0.00 | 0.00 | 0.00 | 60 | 1000.7 |
| 20260509052344 | 53 | 148 | 5.0 | 11.0 | 0.00 | 0.00 | 0.00 | 60 | 1000.9 |
| 20260509052340 | 53 | 142 | 5.0 | 10.0 | 0.00 | 0.00 | 0.00 | 60 | 1000.7 |
| 20260509051336 | 53 | 165 | 5.0 | 11.0 | 0.00 | 0.00 | 0.00 | 60 | 1000.9 |
| 20260509050837 | 53 | 142 | 4.0 | 11.0 | 0.00 | 0.00 | 0.00 | 60 | 1000.8 |
| 20260509050332 | 53 | 155 | 3.0 | 8.0 | 0.00 | 0.00 | 0.00 | 59 | 1001.1 |
| 20260509045833 | 53 | 150 | 4.0 | 8.0 | 0.00 | 0.00 | 0.00 | 59 | 1001.3 |
| 20260509045332 | 53 | 148 | 4.0 | 10.0 | 0.00 | 0.00 | 0.00 | 59 | 1001.1 |
| 20260509044830 | 53 | 114 | 4.0 | 10.0 | 0.00 | 0.00 | 0.00 | 59 | 1000.8 |
| 20260509044330 | 53 | 147 | 3.0 | 9.0 | 0.00 | 0.00 | 0.00 | 58 | 1001.1 |
| 20260509043831 | 53 | 163 | 3.0 | 8.0 | 0.00 | 0.00 | 0.00 | 58 | 1001.4 |
| 20260509043325 | 53 | 123 | 4.0 | 8.0 | 0.00 | 0.00 | 0.00 | 58 | 1001.4 |
| 20260509042824 | 54 | 121 | 4.0 | 7.0 | 0.00 | 0.00 | 0.00 | 58 | 1001.4 |
| 20260509042324 | 54 | 148 | 3.0 | 8.0 | 0.00 | 0.00 | 0.00 | 57 | 1001.6 |
| 20260509041824 | 54 | 153 | 2.0 | 8.0 | 0.00 | 0.00 | 0.00 | 55 | 1001.6 |
| 20260509041325 | 54 | 152 | 2.0 | 3.0 | 0.00 | 0.00 | 0.00 | 55 | 1001.8 |
| 20260509040827 | 54 | 153 | 2.0 | 3.0 | 0.00 | 0.00 | 0.00 | 55 | 1001.7 |
| 20260509040320 | 54 | 153 | 2.0 | 4.0 | 0.00 | 0.00 | 0.00 | 55 | 1001.6 |
| 20260509035820 | 54 | 128 | 2.0 | 4.0 | 0.00 | 0.00 | 0.00 | 55 | 1001.6 |
| 20260509035553 | 55 | 128 | 2.0 | 4.0 | 0.00 | 0.00 | 0.00 | 57 | 1001.8 |
| 20260509034820 | 55 | 119 | 2.0 | 4.0 | 0.00 | 0.00 | 0.00 | 54 | 1001.7 |
| 20260509034318 | 55 | 121 | 3.0 | 8.0 | 0.00 | 0.00 | 0.00 | 54 | 1001.9 |
| 20260509033820 | 55 | 122 | 4.0 | 8.0 | 0.00 | 0.00 | 0.00 | 53 | 1002.1 |
| 20260509033314 | 55 | 134 | 3.0 | 8.0 | 0.00 | 0.00 | 0.00 | 53 | 1002.0 |
| 20260509032815 | 55 | 134 | 3.0 | 10.0 | 0.00 | 0.00 | 0.00 | 53 | 1002.3 |
| 20260509032315 | 55 | 113 | 3.0 | 10.0 | 0.00 | 0.00 | 0.00 | 54 | 1002.2 |
| 20260509032048 | 55 | 189 | 3.0 | 8.0 | 0.00 | 0.00 | 0.00 | 53 | 1002.6 |
| 20260509031313 | 55 | 175 | 3.0 | 7.0 | 0.00 | 0.00 | 0.00 | 54 | 1002.2 |
| 20260509031044 | 55 | 131 | 3.0 | 8.0 | 0.00 | 0.00 | 0.00 | 54 | 1002.0 |
| 20260509030315 | 55 | 136 | 4.0 | 8.0 | 0.00 | 0.00 | 0.00 | 53 | 1002.1 |
| 20260509025809 | 55 | 144 | 4.0 | 9.0 | 0.00 | 0.00 | 0.00 | 52 | 1002.2 |
| 20260509025308 | 55 | 148 | 3.0 | 9.0 | 0.00 | 0.00 | 0.00 | 52 | 1002.2 |
| 20260509024808 | 56 | 140 | 3.0 | 7.0 | 0.00 | 0.00 | 0.00 | 51 | 1002.2 |
| 20260509024309 | 56 | 140 | 3.0 | 7.0 | 0.00 | 0.00 | 0.00 | 51 | 1002.2 |
| 20260509024040 | 56 | 134 | 3.0 | 7.0 | 0.00 | 0.00 | 0.00 | 50 | 1002.1 |
| 20260509023309 | 57 | 132 | 4.0 | 7.0 | 0.00 | 0.00 | 0.00 | 49 | 1002.2 |
| 20260509022807 | 57 | 132 | 6.0 | 10.0 | 0.00 | 0.00 | 0.00 | 49 | 1002.2 |
| 20260509022536 | 58 | 138 | 7.0 | 12.0 | 0.00 | 0.00 | 0.00 | 48 | 1002.2 |
| 20260509021811 | 59 | 119 | 4.0 | 12.0 | 0.00 | 0.00 | 0.00 | 46 | 1002.3 |
| 20260509021304 | 61 | 147 | 1.0 | 5.0 | 0.00 | 0.00 | 0.00 | 48 | 1002.3 |
| 20260509020806 | 61 | 193 | 0.0 | 1.0 | 0.00 | 0.00 | 0.00 | 41 | 1002.2 |
| 20260509020534 | 62 | 193 | 0.0 | 1.0 | 0.00 | 0.00 | 0.00 | 41 | 1002.2 |
| 20260509015802 | 62 | 193 | 0.0 | 2.0 | 0.00 | 0.00 | 0.00 | 41 | 1002.3 |
| 20260509015258 | 63 | 193 | 1.0 | 3.0 | 0.00 | 0.00 | 0.00 | 41 | 1002.3 |
| 20260509014758 | 63 | 194 | 1.0 | 3.0 | 0.00 | 0.00 | 0.00 | 42 | 1002.3 |
| 20260509014308 | 64 | 202 | 2.0 | 8.0 | 0.00 | 0.00 | 0.00 | 39 | 1002.3 |
| 20260509013800 | 64 | 291 | 4.0 | 15.0 | 0.00 | 0.00 | 0.00 | 37 | 1002.4 |
| 20260509013259 | 64 | 293 | 3.0 | 15.0 | 0.00 | 0.00 | 0.00 | 38 | 1002.4 |
| 20260509013030 | 64 | 252 | 2.0 | 5.0 | 0.00 | 0.00 | 0.00 | 37 | 1002.4 |
| 20260509012256 | 64 | 209 | 3.0 | 8.0 | 0.00 | 0.00 | 0.00 | 37 | 1002.4 |
| 20260509011756 | 64 | 255 | 5.0 | 13.0 | 0.00 | 0.00 | 0.00 | 36 | 1002.4 |
| 20260509011528 | 64 | 304 | 6.0 | 13.0 | 0.00 | 0.00 | 0.00 | 36 | 1002.3 |
| 20260509010755 | 63 | 336 | 3.0 | 11.0 | 0.00 | 0.00 | 0.00 | 39 | 1002.2 |
| 20260509010257 | 63 | 303 | 0.0 | 2.0 | 0.00 | 0.00 | 0.00 | 39 | 1002.3 |
| 20260509005753 | 63 | 306 | 1.0 | 4.0 | 0.00 | 0.00 | 0.00 | 39 | 1002.3 |
| 20260509005253 | 63 | 306 | 1.0 | 4.0 | 0.00 | 0.00 | 0.00 | 39 | 1002.3 |
| 20260509004752 | 63 | 230 | 2.0 | 4.0 | 0.00 | 0.00 | 0.00 | 39 | 1002.3 |
| 20260509004252 | 64 | 189 | 2.0 | 7.0 | 0.00 | 0.00 | 0.00 | 39 | 1002.3 |
| 20260509003752 | 64 | 273 | 2.0 | 7.0 | 0.00 | 0.00 | 0.00 | 38 | 1002.3 |
| 20260509003252 | 64 | 199 | 3.0 | 8.0 | 0.00 | 0.00 | 0.00 | 37 | 1002.2 |
| 20260509002752 | 64 | 195 | 4.0 | 9.0 | 0.00 | 0.00 | 0.00 | 37 | 1002.1 |
| 20260509002252 | 64 | 196 | 4.0 | 9.0 | 0.00 | 0.00 | 0.00 | 36 | 1002.2 |
| 20260509001751 | 64 | 207 | 3.0 | 8.0 | 0.00 | 0.00 | 0.00 | 36 | 1002.3 |
| 20260509001252 | 64 | 207 | 3.0 | 8.0 | 0.00 | 0.00 | 0.00 | 36 | 1002.3 |
| 20260509000753 | 64 | 194 | 3.0 | 8.0 | 0.00 | 0.00 | 0.00 | 36 | 1002.3 |
| 20260509000248 | 65 | 199 | 5.0 | 11.0 | 0.00 | 0.00 | 0.00 | 36 | 1002.3 |
| 20260508235716 | 65 | 190 | 5.0 | 11.0 | 0.00 | 0.00 | 0.00 | 35 | 1002.3 |
| 20260508235216 | 65 | 194 | 5.0 | 10.0 | 0.00 | 0.00 | 0.00 | 35 | 1002.2 |
| 20260508234950 | 65 | 170 | 5.0 | 11.0 | 0.00 | 0.00 | 0.00 | 34 | 1002.3 |
| 20260508234212 | 65 | 197 | 5.0 | 12.0 | 0.00 | 0.00 | 0.00 | 34 | 1002.3 |
| 20260508233713 | 65 | 175 | 5.0 | 12.0 | 0.00 | 0.00 | 0.00 | 32 | 1002.4 |
| 20260508233442 | 66 | 189 | 4.0 | 10.0 | 0.00 | 0.00 | 0.00 | 32 | 1002.4 |
| 20260508232712 | 66 | 181 | 5.0 | 10.0 | 0.00 | 0.00 | 0.00 | 33 | 1002.4 |
| 20260508232212 | 66 | 190 | 4.0 | 9.0 | 0.00 | 0.00 | 0.00 | 32 | 1002.5 |
| 20260508231713 | 67 | 202 | 3.0 | 7.0 | 0.00 | 0.00 | 0.00 | 32 | 1002.5 |
| 20260508231207 | 67 | 197 | 2.0 | 7.0 | 0.00 | 0.00 | 0.00 | 31 | 1002.5 |
| 20260508230707 | 67 | 230 | 3.0 | 7.0 | 0.00 | 0.00 | 0.00 | 31 | 1002.5 |
| 20260508230209 | 67 | 240 | 3.0 | 8.0 | 0.00 | 0.00 | 0.00 | 32 | 1002.5 |
| 20260508225714 | 67 | 216 | 4.0 | 10.0 | 0.00 | 0.00 | 0.00 | 29 | 1002.6 |
| 20260508225707 | 67 | 288 | 3.0 | 10.0 | 0.00 | 0.00 | 0.00 | 31 | 1002.5 |
| 20260508224709 | 68 | 250 | 3.0 | 8.0 | 0.00 | 0.00 | 0.00 | 30 | 1002.7 |
| 20260508224208 | 68 | 225 | 3.0 | 9.0 | 0.00 | 0.00 | 0.00 | 30 | 1002.7 |
| 20260508223710 | 68 | 236 | 3.0 | 9.0 | 0.00 | 0.00 | 0.00 | 29 | 1002.9 |
| 20260508223437 | 68 | 189 | 3.0 | 9.0 | 0.00 | 0.00 | 0.00 | 30 | 1002.9 |
| 20260508222937 | 68 | 273 | 3.0 | 10.0 | 0.00 | 0.00 | 0.00 | 30 | 1003.0 |
| 20260508222202 | 68 | 268 | 4.0 | 10.0 | 0.00 | 0.00 | 0.00 | 30 | 1003.0 |
| 20260508221702 | 67 | 327 | 4.0 | 9.0 | 0.00 | 0.00 | 0.00 | 31 | 1003.1 |
| 20260508221204 | 67 | 268 | 5.0 | 11.0 | 0.00 | 0.00 | 0.00 | 31 | 1003.2 |
| 20260508220700 | 67 | 304 | 4.0 | 11.0 | 0.00 | 0.00 | 0.00 | 32 | 1003.2 |
| 20260508220428 | 66 | 331 | 3.0 | 7.0 | 0.00 | 0.00 | 0.00 | 33 | 1003.3 |
| 20260508215927 | 66 | 209 | 3.0 | 8.0 | 0.00 | 0.00 | 0.00 | 33 | 1003.4 |
| 20260508215150 | 66 | 308 | 4.0 | 8.0 | 0.00 | 0.00 | 0.00 | 32 | 1003.4 |
| 20260508214647 | 66 | 238 | 4.0 | 9.0 | 0.00 | 0.00 | 0.00 | 32 | 1003.5 |
| 20260508214419 | 66 | 238 | 3.0 | 9.0 | 0.00 | 0.00 | 0.00 | 33 | 1003.5 |
| 20260508213648 | 66 | 217 | 3.0 | 8.0 | 0.00 | 0.00 | 0.00 | 32 | 1003.5 |
| 20260508213147 | 66 | 201 | 4.0 | 12.0 | 0.00 | 0.00 | 0.00 | 31 | 1003.5 |
| 20260508212648 | 66 | 290 | 4.0 | 12.0 | 0.00 | 0.00 | 0.00 | 31 | 1003.5 |
| 20260508212145 | 66 | 221 | 4.0 | 10.0 | 0.00 | 0.00 | 0.00 | 32 | 1003.6 |
| 20260508211918 | 66 | 298 | 5.0 | 12.0 | 0.00 | 0.00 | 0.00 | 31 | 1003.6 |
| 20260508211143 | 66 | 329 | 5.0 | 12.0 | 0.00 | 0.00 | 0.00 | 30 | 1003.6 |
| 20260508210646 | 66 | 309 | 5.0 | 10.0 | 0.00 | 0.00 | 0.00 | 31 | 1003.7 |
| 20260508210415 | 66 | 312 | 5.0 | 16.0 | 0.00 | 0.00 | 0.00 | 32 | 1003.7 |
| 20260508205915 | 66 | 235 | 4.0 | 16.0 | 0.00 | 0.00 | 0.00 | 31 | 1003.7 |
| 20260508205143 | 66 | 238 | 4.0 | 10.0 | 0.00 | 0.00 | 0.00 | 30 | 1003.8 |
| 20260508204644 | 66 | 202 | 5.0 | 10.0 | 0.00 | 0.00 | 0.00 | 30 | 1003.9 |
| 20260508204141 | 66 | 253 | 5.0 | 12.0 | 0.00 | 0.00 | 0.00 | 32 | 1004.0 |
| 20260508203640 | 66 | 246 | 5.0 | 12.0 | 0.00 | 0.00 | 0.00 | 31 | 1004.0 |
| 20260508203139 | 66 | 278 | 5.0 | 11.0 | 0.00 | 0.00 | 0.00 | 31 | 1004.3 |
| 20260508202640 | 66 | 288 | 4.0 | 12.0 | 0.00 | 0.00 | 0.00 | 32 | 1004.3 |
| 20260508202141 | 66 | 254 | 5.0 | 12.0 | 0.00 | 0.00 | 0.00 | 32 | 1004.3 |
| 20260508201640 | 66 | 284 | 4.0 | 11.0 | 0.00 | 0.00 | 0.00 | 34 | 1004.4 |
| 20260508201140 | 66 | 298 | 3.0 | 8.0 | 0.00 | 0.00 | 0.00 | 32 | 1004.4 |
| 20260508200636 | 66 | 217 | 4.0 | 13.0 | 0.00 | 0.00 | 0.00 | 33 | 1004.5 |
| 20260508200134 | 66 | 234 | 4.0 | 13.0 | 0.00 | 0.00 | 0.00 | 31 | 1004.5 |
| 20260508195634 | 66 | 293 | 4.0 | 10.0 | 0.00 | 0.00 | 0.00 | 31 | 1004.6 |
| 20260508195136 | 65 | 300 | 5.0 | 11.0 | 0.00 | 0.00 | 0.00 | 31 | 1004.7 |
| 20260508194906 | 65 | 288 | 6.0 | 13.0 | 0.00 | 0.00 | 0.00 | 32 | 1004.9 |
| 20260508194132 | 65 | 253 | 5.0 | 13.0 | 0.00 | 0.00 | 0.00 | 31 | 1004.9 |
| 20260508193632 | 66 | 287 | 4.0 | 11.0 | 0.00 | 0.00 | 0.00 | 32 | 1004.9 |
| 20260508193126 | 65 | 296 | 4.0 | 11.0 | 0.00 | 0.00 | 0.00 | 32 | 1005.0 |
| 20260508192625 | 65 | 284 | 5.0 | 12.0 | 0.00 | 0.00 | 0.00 | 33 | 1005.1 |
| 20260508192356 | 65 | 319 | 5.0 | 12.0 | 0.00 | 0.00 | 0.00 | 32 | 1005.1 |
| 20260508191857 | 65 | 280 | 5.0 | 12.0 | 0.00 | 0.00 | 0.00 | 33 | 1005.1 |
| 20260508191740 | 65 | 292 | 6.0 | 15.0 | 0.00 | 0.00 | 0.00 | 31 | 1005.2 |
| 20260508191123 | 65 | 238 | 5.0 | 15.0 | 0.00 | 0.00 | 0.00 | 32 | 1005.3 |
| 20260508190119 | 65 | 285 | 5.0 | 13.0 | 0.00 | 0.00 | 0.00 | 36 | 1005.3 |
| 20260508185851 | 65 | 323 | 6.0 | 13.0 | 0.00 | 0.00 | 0.00 | 33 | 1005.4 |
| 20260508185119 | 65 | 284 | 4.0 | 11.0 | 0.00 | 0.00 | 0.00 | 31 | 1005.3 |
| 20260508184621 | 65 | 319 | 5.0 | 11.0 | 0.00 | 0.00 | 0.00 | 34 | 1005.4 |
| 20260508184352 | 65 | 269 | 6.0 | 16.0 | 0.00 | 0.00 | 0.00 | 34 | 1005.5 |
| 20260508183614 | 65 | 292 | 6.0 | 16.0 | 0.00 | 0.00 | 0.00 | 32 | 1005.5 |
| 20260508183344 | 65 | 274 | 5.0 | 13.0 | 0.00 | 0.00 | 0.00 | 35 | 1005.5 |
| 20260508182613 | 65 | 265 | 5.0 | 13.0 | 0.00 | 0.00 | 0.00 | 35 | 1005.7 |
| 20260508182113 | 64 | 290 | 4.0 | 11.0 | 0.00 | 0.00 | 0.00 | 35 | 1005.7 |
| 20260508181843 | 64 | 188 | 4.0 | 11.0 | 0.00 | 0.00 | 0.00 | 35 | 1005.9 |
| 20260508181114 | 65 | 231 | 4.0 | 9.0 | 0.00 | 0.00 | 0.00 | 34 | 1005.9 |
| 20260508180609 | 65 | 286 | 4.0 | 10.0 | 0.00 | 0.00 | 0.00 | 34 | 1006.0 |
| 20260508180109 | 64 | 183 | 5.0 | 10.0 | 0.00 | 0.00 | 0.00 | 36 | 1006.1 |
| 20260508175607 | 64 | 228 | 5.0 | 10.0 | 0.00 | 0.00 | 0.00 | 37 | 1006.2 |
| 20260508175107 | 64 | 207 | 5.0 | 11.0 | 0.00 | 0.00 | 0.00 | 34 | 1006.3 |
| 20260508174608 | 63 | 246 | 5.0 | 11.0 | 0.00 | 0.00 | 0.00 | 35 | 1006.4 |
| 20260508174108 | 63 | 244 | 4.0 | 11.0 | 0.00 | 0.00 | 0.00 | 34 | 1006.5 |
| 20260508173604 | 63 | 295 | 4.0 | 10.0 | 0.00 | 0.00 | 0.00 | 40 | 1006.5 |
| 20260508173103 | 63 | 245 | 5.0 | 13.0 | 0.00 | 0.00 | 0.00 | 38 | 1006.6 |
| 20260508172606 | 63 | 235 | 5.0 | 13.0 | 0.00 | 0.00 | 0.00 | 39 | 1006.7 |
| 20260508172103 | 63 | 228 | 7.0 | 13.0 | 0.00 | 0.00 | 0.00 | 40 | 1006.8 |
| 20260508171601 | 63 | 242 | 7.0 | 15.0 | 0.00 | 0.00 | 0.00 | 40 | 1006.9 |
| 20260508171102 | 63 | 209 | 7.0 | 20.0 | 0.00 | 0.00 | 0.00 | 40 | 1007.0 |
| 20260508170557 | 62 | 182 | 7.0 | 20.0 | 0.00 | 0.00 | 0.00 | 41 | 1007.1 |
| 20260508170100 | 62 | 225 | 7.0 | 14.0 | 0.00 | 0.00 | 0.00 | 39 | 1007.2 |
| 20260508165555 | 62 | 255 | 7.0 | 18.0 | 0.00 | 0.00 | 0.00 | 39 | 1007.3 |
| 20260508165055 | 61 | 208 | 8.0 | 18.0 | 0.00 | 0.00 | 0.00 | 39 | 1007.3 |
| 20260508164555 | 62 | 198 | 7.0 | 15.0 | 0.00 | 0.00 | 0.00 | 42 | 1007.5 |
| 20260508164056 | 62 | 173 | 6.0 | 15.0 | 0.00 | 0.00 | 0.00 | 41 | 1007.6 |
| 20260508163550 | 62 | 232 | 6.0 | 19.0 | 0.00 | 0.00 | 0.00 | 40 | 1007.7 |
| 20260508163049 | 62 | 231 | 8.0 | 19.0 | 0.00 | 0.00 | 0.00 | 43 | 1007.7 |
| 20260508162550 | 61 | 200 | 9.0 | 21.0 | 0.00 | 0.00 | 0.00 | 43 | 1007.8 |
| 20260508162049 | 61 | 221 | 8.0 | 21.0 | 0.00 | 0.00 | 0.00 | 41 | 1007.8 |
| 20260508161549 | 61 | 190 | 6.0 | 15.0 | 0.00 | 0.00 | 0.00 | 42 | 1007.8 |
| 20260508161050 | 61 | 246 | 6.0 | 15.0 | 0.00 | 0.00 | 0.00 | 43 | 1007.9 |
| 20260508160544 | 60 | 217 | 6.0 | 14.0 | 0.00 | 0.00 | 0.00 | 43 | 1007.9 |
| 20260508160041 | 60 | 181 | 5.0 | 11.0 | 0.00 | 0.00 | 0.00 | 44 | 1007.9 |
| 20260508155814 | 60 | 225 | 5.0 | 13.0 | 0.00 | 0.00 | 0.00 | 44 | 1008.0 |
| 20260508155041 | 60 | 251 | 6.0 | 13.0 | 0.00 | 0.00 | 0.00 | 45 | 1008.0 |
| 20260508154541 | 59 | 214 | 5.0 | 14.0 | 0.00 | 0.00 | 0.00 | 44 | 1008.1 |
| 20260508154042 | 59 | 212 | 5.0 | 14.0 | 0.00 | 0.00 | 0.00 | 44 | 1008.1 |
| 20260508153539 | 59 | 208 | 5.0 | 12.0 | 0.00 | 0.00 | 0.00 | 45 | 1008.2 |
| 20260508153039 | 58 | 260 | 5.0 | 12.0 | 0.00 | 0.00 | 0.00 | 46 | 1008.3 |
| 20260508152539 | 58 | 233 | 4.0 | 12.0 | 0.00 | 0.00 | 0.00 | 44 | 1008.3 |
| 20260508152311 | 59 | 288 | 4.0 | 10.0 | 0.00 | 0.00 | 0.00 | 48 | 1008.3 |
| 20260508151539 | 59 | 225 | 4.0 | 10.0 | 0.00 | 0.00 | 0.00 | 48 | 1008.4 |
| 20260508151311 | 58 | 225 | 4.0 | 11.0 | 0.00 | 0.00 | 0.00 | 50 | 1008.4 |
| 20260508150540 | 57 | 244 | 5.0 | 11.0 | 0.00 | 0.00 | 0.00 | 49 | 1008.4 |
| 20260508150034 | 57 | 275 | 5.0 | 11.0 | 0.00 | 0.00 | 0.00 | 50 | 1008.4 |
| 20260508145533 | 56 | 177 | 5.0 | 11.0 | 0.00 | 0.00 | 0.00 | 51 | 1008.5 |
| 20260508145032 | 57 | 223 | 4.0 | 10.0 | 0.00 | 0.00 | 0.00 | 51 | 1008.5 |
| 20260508144533 | 56 | 231 | 5.0 | 10.0 | 0.00 | 0.00 | 0.00 | 52 | 1008.5 |
| 20260508144033 | 56 | 222 | 5.0 | 12.0 | 0.00 | 0.00 | 0.00 | 54 | 1008.5 |
| 20260508143534 | 55 | 189 | 5.0 | 12.0 | 0.00 | 0.00 | 0.00 | 54 | 1008.5 |
| 20260508143030 | 55 | 232 | 5.0 | 10.0 | 0.00 | 0.00 | 0.00 | 59 | 1008.6 |
| 20260508142531 | 55 | 219 | 4.0 | 9.0 | 0.00 | 0.00 | 0.00 | 57 | 1008.6 |
| 20260508142031 | 55 | 271 | 4.0 | 9.0 | 0.00 | 0.00 | 0.00 | 57 | 1008.6 |
| 20260508141531 | 54 | 225 | 5.0 | 12.0 | 0.00 | 0.00 | 0.00 | 60 | 1008.7 |
| 20260508141302 | 54 | 210 | 5.0 | 12.0 | 0.00 | 0.00 | 0.00 | 59 | 1008.7 |
| 20260508140531 | 54 | 205 | 5.0 | 10.0 | 0.00 | 0.00 | 0.00 | 61 | 1008.7 |
| 20260508140032 | 53 | 199 | 5.0 | 9.0 | 0.00 | 0.00 | 0.00 | 62 | 1008.8 |
| 20260508135525 | 53 | 209 | 5.0 | 14.0 | 0.00 | 0.00 | 0.00 | 64 | 1008.8 |
| 20260508135256 | 53 | 245 | 5.0 | 14.0 | 0.00 | 0.00 | 0.00 | 63 | 1008.8 |
| 20260508134756 | 52 | 206 | 5.0 | 11.0 | 0.00 | 0.00 | 0.00 | 65 | 1008.9 |
| 20260508134025 | 51 | 221 | 6.0 | 12.0 | 0.00 | 0.00 | 0.00 | 65 | 1008.8 |
| 20260508133526 | 51 | 200 | 5.0 | 12.0 | 0.00 | 0.00 | 0.00 | 64 | 1008.9 |
| 20260508133258 | 52 | 189 | 5.0 | 11.0 | 0.00 | 0.00 | 0.00 | 68 | 1008.9 |
| 20260508132526 | 51 | 233 | 5.0 | 11.0 | 0.00 | 0.00 | 0.00 | 69 | 1008.9 |
| 20260508132024 | 50 | 175 | 5.0 | 13.0 | 0.00 | 0.00 | 0.00 | 71 | 1008.9 |
| 20260508132020 | 50 | 221 | 5.0 | 13.0 | 0.00 | 0.00 | 0.00 | 70 | 1008.8 |
| 20260508131019 | 50 | 229 | 5.0 | 11.0 | 0.00 | 0.00 | 0.00 | 72 | 1008.9 |
| 20260508130749 | 50 | 218 | 5.0 | 11.0 | 0.00 | 0.00 | 0.00 | 72 | 1008.8 |
| 20260508130017 | 50 | 228 | 5.0 | 11.0 | 0.00 | 0.00 | 0.00 | 72 | 1008.9 |
| 20260508125517 | 50 | 187 | 5.0 | 12.0 | 0.00 | 0.00 | 0.00 | 72 | 1008.9 |
| 20260508125248 | 49 | 205 | 5.0 | 12.0 | 0.00 | 0.00 | 0.00 | 73 | 1008.9 |
| 20260508124518 | 49 | 253 | 5.0 | 13.0 | 0.00 | 0.00 | 0.00 | 73 | 1008.9 |
| 20260508124013 | 49 | 216 | 4.0 | 13.0 | 0.00 | 0.00 | 0.00 | 74 | 1008.9 |
| 20260508123512 | 49 | 201 | 4.0 | 8.0 | 0.00 | 0.00 | 0.00 | 75 | 1008.9 |
| 20260508123014 | 49 | 221 | 4.0 | 9.0 | 0.00 | 0.00 | 0.00 | 75 | 1008.9 |
| 20260508122743 | 48 | 174 | 4.0 | 9.0 | 0.00 | 0.00 | 0.00 | 77 | 1008.9 |
| 20260508122013 | 47 | 209 | 4.0 | 10.0 | 0.00 | 0.00 | 0.00 | 79 | 1008.9 |
| 20260508121514 | 46 | 215 | 4.0 | 10.0 | 0.00 | 0.00 | 0.00 | 81 | 1008.9 |
| 20260508121008 | 45 | 198 | 4.0 | 10.0 | 0.00 | 0.00 | 0.00 | 82 | 1008.8 |
| 20260508120509 | 44 | 209 | 4.0 | 7.0 | 0.00 | 0.00 | 0.00 | 84 | 1008.8 |
| 20260508120009 | 43 | 184 | 3.0 | 7.0 | 0.00 | 0.00 | 0.00 | 85 | 1008.7 |
| 20260508115509 | 42 | 182 | 3.0 | 5.0 | 0.00 | 0.00 | 0.00 | 85 | 1008.8 |
| 20260508115008 | 41 | 173 | 2.0 | 6.0 | 0.00 | 0.00 | 0.00 | 85 | 1008.8 |
| 20260508114509 | 40 | 171 | 2.0 | 6.0 | 0.00 | 0.00 | 0.00 | 86 | 1008.7 |
| 20260508114008 | 39 | 165 | 1.0 | 3.0 | 0.00 | 0.00 | 0.00 | 86 | 1008.7 |
| 20260508113509 | 38 | 113 | 1.0 | 2.0 | 0.00 | 0.00 | 0.00 | 86 | 1008.7 |
| 20260508113005 | 38 | 132 | 1.0 | 3.0 | 0.00 | 0.00 | 0.00 | 86 | 1008.7 |
| 20260508112505 | 37 | 131 | 2.0 | 3.0 | 0.00 | 0.00 | 0.00 | 86 | 1008.7 |
| 20260508112007 | 37 | 131 | 2.0 | 3.0 | 0.00 | 0.00 | 0.00 | 85 | 1008.7 |
| 20260508111736 | 37 | 133 | 2.0 | 3.0 | 0.00 | 0.00 | 0.00 | 85 | 1008.6 |
| 20260508111004 | 36 | 133 | 2.0 | 3.0 | 0.00 | 0.00 | 0.00 | 86 | 1008.6 |
| 20260508110506 | 36 | 130 | 2.0 | 3.0 | 0.00 | 0.00 | 0.00 | 86 | 1008.6 |
| 20260508110241 | 36 | 129 | 2.0 | 3.0 | 0.00 | 0.00 | 0.00 | 85 | 1008.6 |
| 20260508105736 | 36 | 126 | 2.0 | 3.0 | 0.00 | 0.00 | 0.00 | 85 | 1008.6 |
| 20260508105006 | 36 | 121 | 2.0 | 3.0 | 0.00 | 0.00 | 0.00 | 85 | 1008.6 |
| 20260508104505 | 36 | 143 | 2.0 | 3.0 | 0.00 | 0.00 | 0.00 | 85 | 1008.7 |
| 20260508104005 | 36 | 144 | 2.0 | 3.0 | 0.00 | 0.00 | 0.00 | 85 | 1008.6 |
| 20260508103502 | 36 | 140 | 2.0 | 3.0 | 0.00 | 0.00 | 0.00 | 85 | 1008.7 |
| 20260508103004 | 36 | 138 | 2.0 | 3.0 | 0.00 | 0.00 | 0.00 | 85 | 1008.7 |
| 20260508102457 | 36 | 136 | 2.0 | 3.0 | 0.00 | 0.00 | 0.00 | 85 | 1008.7 |
| 20260508101954 | 36 | 135 | 2.0 | 3.0 | 0.00 | 0.00 | 0.00 | 85 | 1008.8 |
| 20260508101454 | 36 | 133 | 1.0 | 2.0 | 0.00 | 0.00 | 0.00 | 85 | 1008.7 |
| 20260508101228 | 36 | 165 | 0.0 | 2.0 | 0.00 | 0.00 | 0.00 | 85 | 1008.7 |
| 20260508100455 | 36 | 165 | 0.0 | 2.0 | 0.00 | 0.00 | 0.00 | 85 | 1008.8 |
| 20260508095955 | 36 | 164 | 0.0 | 0.0 | 0.00 | 0.00 | 0.00 | 84 | 1008.8 |
| 20260508095452 | 36 | 164 | 1.0 | 4.0 | 0.00 | 0.00 | 0.00 | 84 | 1008.9 |
| 20260508094951 | 36 | 164 | 1.0 | 4.0 | 0.00 | 0.00 | 0.00 | 84 | 1008.9 |
| 20260508094448 | 36 | 178 | 0.0 | 2.0 | 0.00 | 0.00 | 0.00 | 84 | 1008.9 |
| 20260508093950 | 36 | 173 | 1.0 | 2.0 | 0.00 | 0.00 | 0.00 | 84 | 1008.9 |
| 20260508093448 | 36 | 173 | 1.0 | 2.0 | 0.00 | 0.00 | 0.00 | 84 | 1008.9 |
| 20260508092946 | 36 | 173 | 1.0 | 2.0 | 0.00 | 0.00 | 0.00 | 84 | 1008.9 |
| 20260508092713 | 36 | 174 | 1.0 | 2.0 | 0.00 | 0.00 | 0.00 | 83 | 1008.9 |
| 20260508091942 | 36 | 175 | 0.0 | 2.0 | 0.00 | 0.00 | 0.00 | 83 | 1008.9 |
| 20260508091440 | 36 | 149 | 1.0 | 2.0 | 0.00 | 0.00 | 0.00 | 83 | 1009.0 |
| 20260508090943 | 36 | 144 | 1.0 | 2.0 | 0.00 | 0.00 | 0.00 | 82 | 1009.0 |
| 20260508090440 | 36 | 144 | 1.0 | 3.0 | 0.00 | 0.00 | 0.00 | 82 | 1009.0 |
| 20260508085940 | 36 | 141 | 2.0 | 3.0 | 0.00 | 0.00 | 0.00 | 82 | 1009.0 |
| 20260508085434 | 36 | 141 | 2.0 | 3.0 | 0.00 | 0.00 | 0.00 | 81 | 1009.1 |
| 20260508084934 | 37 | 138 | 2.0 | 3.0 | 0.00 | 0.00 | 0.00 | 81 | 1009.1 |
| 20260508084431 | 37 | 138 | 2.0 | 4.0 | 0.00 | 0.00 | 0.00 | 81 | 1009.1 |
| 20260508083931 | 37 | 138 | 2.0 | 4.0 | 0.00 | 0.00 | 0.00 | 81 | 1009.1 |
| 20260508083431 | 37 | 136 | 2.0 | 4.0 | 0.00 | 0.00 | 0.00 | 80 | 1009.1 |
| 20260508082932 | 37 | 134 | 2.0 | 5.0 | 0.00 | 0.00 | 0.00 | 80 | 1009.2 |
| 20260508082425 | 37 | 134 | 2.0 | 5.0 | 0.00 | 0.00 | 0.00 | 79 | 1009.3 |
| 20260508081924 | 37 | 148 | 2.0 | 3.0 | 0.00 | 0.00 | 0.00 | 79 | 1009.3 |
| 20260508081421 | 37 | 148 | 1.0 | 3.0 | 0.00 | 0.00 | 0.00 | 79 | 1009.5 |
| 20260508080918 | 37 | 146 | 2.0 | 3.0 | 0.00 | 0.00 | 0.00 | 79 | 1009.5 |
| 20260508080419 | 37 | 153 | 2.0 | 3.0 | 0.00 | 0.00 | 0.00 | 79 | 1009.5 |
| 20260508075914 | 37 | 154 | 1.0 | 3.0 | 0.00 | 0.00 | 0.00 | 78 | 1009.5 |
| 20260508075413 | 38 | 154 | 1.0 | 3.0 | 0.00 | 0.00 | 0.00 | 78 | 1009.6 |
| 20260508075143 | 38 | 153 | 2.0 | 3.0 | 0.00 | 0.00 | 0.00 | 78 | 1009.7 |
| 20260508074412 | 38 | 153 | 2.0 | 3.0 | 0.00 | 0.00 | 0.00 | 78 | 1009.7 |
| 20260508073913 | 38 | 155 | 2.0 | 3.0 | 0.00 | 0.00 | 0.00 | 78 | 1009.8 |
| 20260508073415 | 38 | 156 | 2.0 | 3.0 | 0.00 | 0.00 | 0.00 | 77 | 1009.8 |
| 20260508072908 | 38 | 157 | 2.0 | 4.0 | 0.00 | 0.00 | 0.00 | 77 | 1009.8 |
| 20260508072406 | 38 | 157 | 2.0 | 4.0 | 0.00 | 0.00 | 0.00 | 77 | 1009.8 |
| 20260508071902 | 38 | 159 | 2.0 | 4.0 | 0.00 | 0.00 | 0.00 | 77 | 1009.9 |
| 20260508071400 | 39 | 158 | 2.0 | 4.0 | 0.00 | 0.00 | 0.00 | 77 | 1009.9 |
| 20260508070901 | 39 | 171 | 2.0 | 5.0 | 0.00 | 0.00 | 0.00 | 77 | 1010.0 |
| 20260508070356 | 39 | 169 | 2.0 | 5.0 | 0.00 | 0.00 | 0.00 | 76 | 1010.1 |
| 20260508065858 | 39 | 171 | 2.0 | 6.0 | 0.00 | 0.00 | 0.00 | 76 | 1010.2 |
| 20260508065355 | 39 | 173 | 2.0 | 6.0 | 0.00 | 0.00 | 0.00 | 76 | 1010.2 |
| 20260508064855 | 39 | 173 | 2.0 | 4.0 | 0.00 | 0.00 | 0.00 | 76 | 1010.3 |
| 20260508064625 | 39 | 180 | 2.0 | 6.0 | 0.00 | 0.00 | 0.00 | 76 | 1010.3 |
| 20260508064127 | 39 | 181 | 3.0 | 6.0 | 0.00 | 0.00 | 0.00 | 75 | 1010.3 |
| 20260508063350 | 39 | 160 | 3.0 | 5.0 | 0.00 | 0.00 | 0.00 | 75 | 1010.3 |
| 20260508062848 | 39 | 170 | 4.0 | 7.0 | 0.00 | 0.00 | 0.00 | 75 | 1010.4 |
| 20260508062620 | 39 | 173 | 4.0 | 8.0 | 0.00 | 0.00 | 0.00 | 75 | 1010.3 |
| 20260508061849 | 39 | 176 | 3.0 | 8.0 | 0.00 | 0.00 | 0.00 | 75 | 1010.3 |
| 20260508061354 | 39 | 172 | 4.0 | 10.0 | 0.00 | 0.00 | 0.00 | 75 | 1010.4 |
| 20260508061348 | 39 | 181 | 3.0 | 6.0 | 0.00 | 0.00 | 0.00 | 75 | 1010.4 |
| 20260508060615 | 39 | 171 | 5.0 | 10.0 | 0.00 | 0.00 | 0.00 | 75 | 1010.5 |
| 20260508055844 | 39 | 188 | 5.0 | 9.0 | 0.00 | 0.00 | 0.00 | 74 | 1010.5 |